Hourly Data Report for May 18, 2018

DRYDEN REGIONAL
ONTARIO
Current Station Operator: NAVCAN

49°49'39.000" N
92°44'39.000" W
412.70 m
6032125
71527
YHD

Download Data

Hourly Data (May 2018)
Hourly Data Report for May 18, 2018
TIME
LST
Temp Definition
°C
Dew Point Definition
°C
Rel Hum Definition
%
Precip. Amount Definition
mm

Wind Dir Definition
10's deg

Wind Spd Definition
km/h
Visibility Definition
km
Stn Press Definition
kPa
Hmdx Definition


Wind Chill Definition


Weather Definition


00:00 6.0 4.0 87 0.5 12 18 16.1 97.36     Rain
01:00 5.5 4.2 91 0.2 10 9 16.1 97.32     Rain
02:00 5.0 4.0 93 0.8 9 13 9.7 97.27     Moderate Rain, Fog
03:00 5.0 4.1 94 3.5 7 15 12.9 97.23     Rain
04:00 4.9 3.9 93 0.5 8 18 16.1 97.18     Rain
05:00 4.6 3.6 93 0.0 8 15 16.1 97.17     LegendNANA
06:00 4.6 3.7 94 0.0 8 13 16.1 97.18     LegendNANA
07:00 4.5 3.8 95 0.8 9 13 16.1 97.14     Rain
08:00 4.7 4.1 96 0.8 8 11 14.5 97.11     Rain
09:00 4.8 4.1 95 1.5 9 15 11.3 97.04     Rain
10:00 5.0 4.1 94 0.2 8 13 16.1 96.99     LegendNANA
11:00 6.2 4.9 91 0.0 7 17 16.1 96.96     LegendNANA
12:00 7.7 5.5 86 0.0 6 18 16.1 96.87     LegendNANA
13:00 7.7 5.4 85 0.0 6 18 16.1 96.83     LegendNANA
14:00 8.7 5.9 82 0.0 3 18 16.1 96.79     LegendNANA
15:00 7.8 5.1 83 0.0 5 22 16.1 96.69     LegendNANA
16:00 6.5 5.8 95 3.0 4 21 12.9 96.58     Rain
17:00 6.0 5.4 96 3.5 2 22 11.3 96.66     Moderate Rain
18:00 5.5 4.9 96 6.0 4 22 9.7 96.70     Moderate Rain, Fog
19:00 5.4 4.8 96 6.8 5 28 8.1 96.67     Moderate Rain, Fog
20:00 5.3 4.7 96 6.2 5 24 9.7 96.68     Moderate Rain, Fog
21:00 5.2 4.6 96 5.8 3 18 11.3 96.74     Moderate Rain
22:00 5.1 4.5 96 2.8 4 17 16.1 96.78     Rain
23:00 4.8 4.4 97 0.8 2 17 14.5 96.79     Rain

Notes on Data Quality.

Legend

  • E = Estimated
  • M = Missing
  • NA = Not Available*
  • [empty] = Indicates an unobserved value
Date modified: